[[{"header":{"parameterUnit":"m.s-1","parameterCategory":1,"la1":30.2991,"la2":30.254,"lo1":-89.0895,"lo2":-89.0444,"dy":0.0017,"dx":0.0017,"nx":28,"ny":28,"refTime":"2024-02-03T03:00:00:Z","depth":0,"parameterNumber":2,"parameterNumberName":"U-component_of_WINDS"},"data":[0,0,0,0,0,0,0,0,0,0,0,0,0,0,0,0,0,0,0,0,0,0,0,0,0,0,0,0,0,0,0,0,0,0,0,0,0,0,0,0,0,0,0,0,0,0,0,0,0,0,0,0,0,0,0,0,0,0,-1.1466,-1.1467,0,-1.1515,-1.1516,-1.1517,-1.1475,-1.1473,-1.1471,-1.147,-1.1525,-1.1528,-1.1531,0,0,0,0,0,0,0,0,0,0,0,0,0,-1.1339,-1.1342,-1.1466,-1.1467,-1.1467,-1.1515,-1.1516,-1.1517,-1.1475,-1.1473,-1.1471,-1.1469,-1.1524,-1.1527,-1.1531,0,0,0,0,0,0,0,0,0,0,0,0,0,-1.1392,-1.1343,-1.1466,-1.1452,-1.1452,-1.1515,-1.1516,-1.1517,-1.1476,-1.1473,-1.147,-1.1468,-1.1522,-1.1527,-1.1531,-1.1612,0,0,-1.1546,-1.1548,0,0,0,0,0,0,0,0,-1.1389,-1.1397,-1.1454,-1.1453,-1.1453,-1.1486,-1.1491,-1.1549,-1.1476,-1.1467,-1.147,-1.1467,-1.1514,-1.1519,-1.1535,-1.1615,-1.1617,-1.1546,-1.1549,-1.1551,-1.1552,0,0,0,0,0,0,0,-1.1386,-1.1395,-1.1486,-1.1455,-1.1454,-1.1445,-1.1449,-1.1502,-1.1505,-1.1467,-1.1464,-1.1471,-1.1513,-1.153,-1.1535,-1.1618,-1.1546,-1.155,-1.1553,-1.1555,-1.1766,-1.1769,0,0,0,0,0,0,-1.1383,-1.1392,-1.1484,-1.1487,-1.1414,-1.1449,-1.1454,-1.1478,-1.1504,-1.1505,-1.1473,-1.1468,-1.1524,-1.153,-1.1537,-1.1633,-1.1551,-1.1555,-1.1558,-1.1763,-1.1767,-1.177,0,0,0,0,0,0,-1.138,-1.1392,-1.1482,-1.1439,-1.145,-1.1454,-1.1481,-1.1481,-1.1497,-1.1508,-1.1509,-1.1489,-1.1522,-1.1531,-1.1593,-1.1634,-1.1557,-1.1561,-1.176,-1.1764,-1.1768,-1.1825,0,0,0,0,0,0,-1.1377,-1.1391,-1.1421,-1.144,-1.1452,-1.1537,-1.1484,-1.1483,-1.1505,-1.1499,-1.1523,-1.1525,-1.152,-1.1587,-1.1598,-1.1639,-1.1565,-1.1756,-1.1762,-1.1767,-1.182,-1.1831,-1.184,0,0,0,0,0,-1.1373,-1.1437,-1.1423,-1.1434,-1.149,-1.1539,-1.1547,-1.1539,-1.1508,-1.1539,-1.1546,-1.1524,-1.1628,-1.1593,-1.1606,-1.1649,-1.1754,-1.176,-1.1767,-1.1815,-1.1829,-1.184,0,0,0,0,0,0,-1.1425,-1.1439,-1.1424,-1.1496,-1.1516,-1.1532,-1.1571,-1.1553,-1.1585,-1.1579,-1.1569,-1.1575,-1.164,-1.1651,-1.1612,-1.1728,-1.1686,-1.1695,-1.1719,-1.1732,-1.1742,-1.1738,-1.1569,0,0,0,0,0,-1.1444,-1.1482,-1.1493,-1.1555,-1.1566,-1.1567,-1.1588,-1.158,-1.1602,-1.1611,-1.1622,-1.1645,-1.1682,-1.1708,-1.1743,-1.1821,-1.1825,-1.1857,-1.1867,-1.1875,-1.1884,-1.1925,-1.1938,-1.1791,-1.1791,-1.1791,0,0,-1.1486,-1.1498,-1.1523,-1.1566,-1.1581,-1.1621,-1.1575,-1.162,-1.1649,-1.1618,-1.1677,-1.1686,-1.1711,-1.1782,-1.1813,-1.1793,-1.1925,-1.1883,-1.189,-1.1894,-1.1933,-1.1946,-1.1959,-1.1795,-1.1794,-1.1794,0,0,-1.1582,-1.1595,-1.1648,-1.1663,-1.1686,-1.1685,-1.1698,-1.1716,-1.172,-1.1779,-1.1756,-1.1792,-1.1857,-1.1875,-1.1893,-1.1994,-1.1975,-1.2006,-1.206,-1.21,-1.2112,-1.2122,-1.2157,-1.217,-1.2014,-1.2014,-1.2014,0,-1.1631,-1.1689,-1.1677,-1.1723,-1.1743,-1.1714,-1.1767,-1.1783,-1.1817,-1.1832,-1.1807,-1.1887,-1.1902,-1.1976,-1.2,-1.2016,-1.203,-1.2003,-1.2111,-1.2121,-1.213,-1.2164,-1.2177,-1.2017,-1.2017,-1.2016,-1.2016,0,-1.1748,-1.1789,-1.1829,-1.186,-1.1884,-1.1934,-1.193,-1.1956,-1.1945,-1.1947,-1.2007,-1.2023,-1.2061,-1.2078,-1.2069,-1.215,-1.2136,-1.2112,-1.2069,-1.2148,-1.2179,-1.2192,-1.2022,-1.2021,-1.202,-1.2019,0,0,-1.1881,-1.1902,-1.1917,-1.193,-1.1952,-1.1984,-1.2032,-1.2066,-1.2088,-1.2113,-1.2153,-1.2207,-1.2184,-1.2204,-1.2197,-1.2232,-1.231,-1.2203,-1.2203,-1.2222,-1.24,-1.2418,-1.2433,-1.2297,-1.23,-1.2302,-1.2397,0,-1.1977,-1.2059,-1.2048,-1.2127,-1.2164,-1.2137,-1.2178,-1.2197,-1.22,-1.2233,-1.2237,-1.2275,-1.2242,-1.2254,-1.2287,-1.2293,-1.2345,-1.2286,-1.2335,-1.2337,-1.233,-1.2449,-1.2469,-1.2559,-1.241,-1.2412,-1.2413,0,-1.2101,-1.2126,-1.2208,-1.2223,-1.2238,-1.2276,-1.2306,-1.2337,-1.2357,-1.2357,-1.2379,-1.2364,-1.2413,-1.2369,-1.2436,-1.2396,-1.2415,-1.2421,-1.2425,-1.2429,-1.238,-1.2457,-1.2587,-1.2601,-1.2433,-1.2431,-1.243,0,-1.2188,-1.2243,-1.2299,-1.2311,-1.233,-1.2356,-1.2366,-1.2383,-1.2404,-1.2431,-1.2444,-1.2477,-1.2495,-1.2521,-1.2516,-1.2485,-1.2585,-1.254,-1.2586,-1.2586,-1.2609,-1.2608,-1.2744,-1.2622,-1.2621,-1.2621,-1.2621,0,-1.2297,-1.2348,-1.2338,-1.2373,-1.2429,-1.2416,-1.2473,-1.2479,-1.2494,-1.253,-1.2508,-1.2542,-1.2534,-1.2568,-1.2565,-1.262,-1.2629,-1.263,-1.2629,-1.2632,-1.2632,-1.2645,-1.2639,-1.2625,-1.2624,-1.2623,-1.2623,0,-1.2404,-1.24,-1.2458,-1.247,-1.2474,-1.2515,-1.2525,-1.2558,-1.2558,-1.2604,-1.2614,-1.2615,-1.2654,-1.2651,-1.2695,-1.2693,-1.2761,-1.2753,-1.2754,-1.2752,-1.2798,-1.2794,-1.2948,-1.2967,-1.2832,-1.2833,-1.2834,0,-1.2474,-1.2512,-1.2527,-1.2548,-1.2558,-1.2593,-1.2614,-1.2603,-1.2626,-1.265,-1.268,-1.2716,-1.2744,-1.2807,-1.2813,-1.2847,-1.2838,-1.289,-1.2844,-1.2845,-1.2839,-1.2836,-1.284,-1.2899,-1.2901,-1.2902,-1.2903,0,-1.2598,-1.2593,-1.2623,-1.2651,-1.2676,-1.2698,-1.2719,-1.2738,-1.2729,-1.2755,-1.2793,-1.2815,-1.2858,-1.2895,-1.2926,-1.2937,-1.2919,-1.2917,-1.293,-1.2934,-1.2933,-1.2933,-1.2779,-1.2914,-1.2913,-1.2912,-1.2912,-1.2911,-1.2688,-1.272,-1.2735,-1.2769,-1.2782,-1.2801,-1.2832,-1.2835,-1.2866,-1.2899,-1.2891,-1.2934,-1.2952,-1.2992,-1.3005,-1.3039,-1.3021,-1.3039,-1.3044,-1.3048,-1.3053,-1.2927,-1.3045,-1.3045,-1.3045,-1.3044,-1.3044,0,-1.2811,-1.2818,-1.2849,-1.2877,-1.2903,-1.2881,-1.2902,-1.2926,-1.2963,-1.2981,-1.3008,-1.3052,-1.3086,-1.3094,-1.3127,-1.3152,-1.3145,-1.3161,-1.316,-1.3162,-1.3068,-1.3054,-1.3167,-1.3167,-1.3167,-1.3167,-1.3167,-1.3167,-1.2878,-1.293,-1.2927,-1.2986,-1.2994,-1.3034,-1.3048,-1.3065,-1.3079,-1.3127,-1.3155,-1.3159,-1.3172,-1.3206,-1.3237,-1.3238,-1.3251,-1.3271,-1.3269,-1.3181,-1.3169,-1.3157,-1.3144,-1.3274,-1.3274,-1.3361,-1.3362,-1.3362]},{"header":{"parameterUnit":"m.s-1","parameterCategory":1,"la1":30.2991,"la2":30.254,"lo1":-89.0895,"lo2":-89.0444,"dy":0.0017,"dx":0.0017,"nx":28,"ny":28,"refTime":"2024-02-03T03:00:00:Z","depth":0,"parameterNumber":3,"parameterNumberName":"V-component_of_WINDS"},"data":[0,0,0,0,0,0,0,0,0,0,0,0,0,0,0,0,0,0,0,0,0,0,0,0,0,0,0,0,0,0,0,0,0,0,0,0,0,0,0,0,0,0,0,0,0,0,0,0,0,0,0,0,0,0,0,0,0,0,-0.7203,-0.7202,0,-0.7132,-0.7132,-0.7131,-0.7114,-0.7114,-0.7115,-0.7115,-0.7039,-0.7037,-0.7034,0,0,0,0,0,0,0,0,0,0,0,0,0,-0.7317,-0.7315,-0.7203,-0.7202,-0.7201,-0.7133,-0.7132,-0.7131,-0.7114,-0.7114,-0.7115,-0.7116,-0.704,-0.7037,-0.7034,0,0,0,0,0,0,0,0,0,0,0,0,0,-0.7259,-0.7314,-0.7203,-0.7184,-0.7182,-0.7133,-0.7132,-0.713,-0.7114,-0.7114,-0.7115,-0.7116,-0.7041,-0.7037,-0.7034,-0.6996,0,0,-0.7022,-0.7021,0,0,0,0,0,0,0,0,-0.7262,-0.7255,-0.7188,-0.7186,-0.7183,-0.7133,-0.7144,-0.7085,-0.7114,-0.7139,-0.7115,-0.7116,-0.7069,-0.7063,-0.7049,-0.6993,-0.699,-0.7022,-0.702,-0.7018,-0.7017,0,0,0,0,0,0,0,-0.7266,-0.7258,-0.7175,-0.7187,-0.7184,-0.7178,-0.717,-0.7133,-0.7101,-0.7137,-0.7136,-0.7128,-0.7068,-0.7052,-0.7047,-0.6989,-0.7022,-0.7019,-0.7017,-0.7015,-0.6896,-0.6895,0,0,0,0,0,0,-0.7274,-0.7261,-0.7177,-0.7173,-0.7225,-0.7175,-0.7167,-0.7148,-0.7102,-0.7095,-0.7128,-0.7128,-0.7058,-0.7051,-0.7044,-0.6996,-0.7018,-0.7015,-0.7013,-0.6897,-0.6896,-0.6895,0,0,0,0,0,0,-0.7277,-0.7267,-0.718,-0.7216,-0.7205,-0.7173,-0.7151,-0.7146,-0.713,-0.7094,-0.7088,-0.7117,-0.7058,-0.7049,-0.7008,-0.6993,-0.7013,-0.701,-0.6898,-0.6897,-0.6896,-0.69,0,0,0,0,0,0,-0.728,-0.7268,-0.7255,-0.7216,-0.7203,-0.7147,-0.7151,-0.7144,-0.7124,-0.7124,-0.7083,-0.7077,-0.7058,-0.7014,-0.7004,-0.6988,-0.7007,-0.69,-0.6898,-0.6896,-0.6901,-0.6899,-0.6897,0,0,0,0,0,-0.7284,-0.7258,-0.7254,-0.7244,-0.7186,-0.7146,-0.7138,-0.7119,-0.7123,-0.7109,-0.7085,-0.7078,-0.6996,-0.701,-0.6999,-0.6981,-0.69,-0.6898,-0.6896,-0.6902,-0.6899,-0.6897,0,0,0,0,0,0,-0.7294,-0.7253,-0.7248,-0.7209,-0.7181,-0.7143,-0.7124,-0.7117,-0.7086,-0.7086,-0.7062,-0.7053,-0.7013,-0.6993,-0.7009,-0.6942,-0.6948,-0.6944,-0.6956,-0.6953,-0.6951,-0.6956,-0.7004,0,0,0,0,0,-0.7292,-0.7264,-0.7229,-0.7198,-0.7185,-0.7157,-0.7139,-0.7126,-0.7096,-0.7083,-0.7057,-0.7027,-0.6994,-0.6973,-0.6941,-0.6898,-0.6888,-0.6881,-0.6879,-0.6877,-0.6873,-0.6847,-0.6843,-0.6888,-0.6888,-0.6888,0,0,-0.7286,-0.7261,-0.7244,-0.7199,-0.7176,-0.7146,-0.7147,-0.7116,-0.7093,-0.7078,-0.7038,-0.7017,-0.6982,-0.6939,-0.6919,-0.6922,-0.6858,-0.6875,-0.6874,-0.687,-0.6844,-0.684,-0.6836,-0.6887,-0.6887,-0.6887,0,0,-0.7261,-0.724,-0.7211,-0.7188,-0.7154,-0.7135,-0.7129,-0.7092,-0.7078,-0.7037,-0.7025,-0.6997,-0.6942,-0.6916,-0.6896,-0.686,-0.6851,-0.685,-0.6839,-0.6814,-0.6811,-0.6807,-0.6792,-0.6788,-0.6847,-0.6847,-0.6847,0,-0.7258,-0.7215,-0.7196,-0.7166,-0.7145,-0.7132,-0.7101,-0.7079,-0.7036,-0.7021,-0.7025,-0.6954,-0.6929,-0.688,-0.6871,-0.6856,-0.6845,-0.6854,-0.6813,-0.6809,-0.6806,-0.6791,-0.6786,-0.6847,-0.6847,-0.6847,-0.6847,0,-0.7212,-0.7182,-0.7162,-0.7121,-0.7099,-0.7068,-0.7043,-0.7022,-0.7012,-0.6992,-0.695,-0.692,-0.6881,-0.6868,-0.6857,-0.6817,-0.6819,-0.6818,-0.6824,-0.6802,-0.6788,-0.6782,-0.6847,-0.6847,-0.6847,-0.6847,0,0,-0.719,-0.714,-0.7133,-0.7113,-0.7075,-0.705,-0.7018,-0.6981,-0.6962,-0.6932,-0.6903,-0.6856,-0.6855,-0.6832,-0.6818,-0.6796,-0.6767,-0.6798,-0.6796,-0.6791,-0.6718,-0.6717,-0.6712,-0.6762,-0.6761,-0.676,-0.672,0,-0.7158,-0.7102,-0.7085,-0.7037,-0.7007,-0.6994,-0.6966,-0.6938,-0.6919,-0.6889,-0.6868,-0.6834,-0.6836,-0.6822,-0.68,-0.6776,-0.6752,-0.6778,-0.6732,-0.6731,-0.674,-0.6704,-0.6704,-0.6668,-0.6715,-0.6714,-0.6713,0,-0.7114,-0.7085,-0.7034,-0.6998,-0.6985,-0.696,-0.6923,-0.6896,-0.6864,-0.6851,-0.6825,-0.6813,-0.6776,-0.6786,-0.6734,-0.6752,-0.6732,-0.6717,-0.6716,-0.6709,-0.6719,-0.6695,-0.6656,-0.665,-0.6705,-0.6706,-0.6706,0,-0.71,-0.7048,-0.7011,-0.6995,-0.6952,-0.6935,-0.6916,-0.6884,-0.6862,-0.683,-0.6815,-0.6779,-0.6759,-0.673,-0.6707,-0.6716,-0.6657,-0.6664,-0.6643,-0.6643,-0.663,-0.663,-0.6585,-0.662,-0.662,-0.6621,-0.6621,0,-0.7066,-0.7035,-0.7004,-0.6981,-0.6945,-0.6924,-0.6889,-0.6869,-0.6841,-0.6812,-0.6798,-0.6771,-0.6744,-0.6712,-0.6694,-0.6652,-0.6644,-0.6631,-0.6626,-0.6631,-0.6632,-0.6616,-0.6617,-0.6619,-0.6619,-0.662,-0.662,0,-0.7044,-0.7023,-0.6981,-0.6944,-0.6934,-0.6909,-0.6876,-0.6852,-0.6833,-0.6796,-0.6786,-0.6755,-0.6717,-0.6692,-0.6644,-0.6631,-0.6586,-0.6582,-0.6597,-0.6594,-0.6573,-0.6575,-0.6514,-0.6504,-0.6549,-0.6548,-0.6548,0,-0.7023,-0.6998,-0.6959,-0.694,-0.6921,-0.689,-0.6868,-0.6846,-0.6823,-0.6784,-0.6764,-0.6725,-0.6693,-0.6633,-0.6605,-0.6567,-0.6562,-0.6543,-0.6556,-0.6561,-0.6558,-0.6559,-0.6556,-0.654,-0.654,-0.654,-0.6539,0,-0.6986,-0.6976,-0.6946,-0.6912,-0.6886,-0.6858,-0.6829,-0.6813,-0.6786,-0.6761,-0.6723,-0.6698,-0.6649,-0.661,-0.657,-0.6548,-0.6538,-0.6536,-0.6529,-0.6532,-0.6541,-0.6533,-0.6589,-0.6537,-0.6537,-0.6537,-0.6538,-0.6538,-0.6962,-0.6939,-0.6908,-0.6874,-0.6851,-0.6824,-0.6799,-0.6777,-0.6745,-0.6704,-0.6693,-0.6653,-0.6619,-0.6564,-0.6541,-0.6508,-0.6509,-0.6499,-0.6496,-0.6494,-0.6492,-0.6548,-0.6501,-0.6501,-0.6501,-0.6501,-0.6501,0,-0.6922,-0.6902,-0.6871,-0.6832,-0.6805,-0.68,-0.6768,-0.6745,-0.671,-0.668,-0.6649,-0.6604,-0.6566,-0.6535,-0.6496,-0.6474,-0.6469,-0.6465,-0.6465,-0.6459,-0.6494,-0.6504,-0.647,-0.647,-0.647,-0.647,-0.647,-0.647,-0.6898,-0.6859,-0.6846,-0.6794,-0.6773,-0.6735,-0.6716,-0.6691,-0.6667,-0.6617,-0.6586,-0.6567,-0.6536,-0.6494,-0.6458,-0.645,-0.6434,-0.6431,-0.6421,-0.6454,-0.6457,-0.646,-0.6469,-0.6428,-0.6428,-0.6389,-0.6388,-0.6388]}]]